{"data":{"norad_id":40105,"epoch":"2026-05-25T02:50:04.165728Z","epoch_age_seconds":58030,"freshness":"FRESH","line1":"1 40105U 14045A   26145.11810377 -.00000012  00000+0  00000+0 0  9992","line2":"2 40105  55.3389  89.3836 0032411 118.5325 241.7669  2.00556855 85619","mean_motion":2.00556855,"eccentricity":0.0032411,"inclination_deg":55.3389,"raan_deg":89.3836,"arg_perigee_deg":118.5325,"mean_anomaly_deg":241.7669,"bstar":0,"rev_number":8561,"period_min":718.00088807735,"perigee_km":20096.719999914,"apogee_km":20268.893349001,"semimajor_km":26560.943674458,"source":"CELESTRAK","updated_at":"2026-05-25T13:38:23.732274Z"}}